Wind_Speed
12 12 11 10 10 9 9 9 8 8 7 7 6 5 5 4 4 4 4 4 3 2 2 2 2 2 2 2 2 2 1 2 1 2 2 2 2 2 2 2 3 3 3
13 13 12 12 11 11 10 10 10 9 9 8 7 7 6 6 5 5 5 4 4 3 3 3 3 3 3 3 3 3 3 3 3 3 3 3 3 3 3 3 3 3 3
15 14 14 13 12 12 12 11 11 11 10 9 9 8 8 7 7 6 6 5 5 4 4 4 4 4 5 5 5 5 5 4 4 4 4 5 5 4 4 4 4 4 4
16 16 15 15 14 13 13 13 12 12 11 11 10 10 9 9 9 8 8 7 7 6 6 6 6 6 6 6 6 6 6 6 6 6 6 6 6 6 6 5 5 5 5
18 17 17 16 15 15 15 14 14 14 13 12 12 11 11 10 10 10 10 9 9 8 8 7 7 7 7 7 7 8 8 8 8 8 8 7 7 7 7 7 7 7 7
20 19 18 17 17 16 16 16 16 15 15 14 14 13 12 12 12 11 11 11 11 11 10 10 9 9 9 9 9 10 10 10 10 10 9 9 8 8 8 8 8 8 8
22 21 20 19 18 17 17 18 17 17 16 16 15 15 14 14 14 13 13 13 13 13 12 12 12 11 11 11 11 11 11 11 11 11 11 10 10 10 10 10 10 10 10
23 23 22 21 21 20 19 19 19 18 18 18 17 17 16 15 15 15 15 15 15 14 14 14 14 14 13 13 13 13 13 13 13 13 13 13 12 12 12 11 11 11 11
25 24 24 24 23 22 21 21 21 20 19 19 19 19 18 18 17 17 17 16 16 16 16 16 16 16 16 15 15 15 15 15 15 15 15 15 15 14 14 14 13 13 13
27 26 26 25 25 24 24 23 22 21 21 21 21 20 20 20 19 19 19 19 18 18 18 18 18 18 18 17 17 17 17 17 17 17 17 17 16 16 16 16 16 15 16
28 28 28 27 26 26 25 25 24 24 24 23 22 22 22 22 22 21 21 21 21 21 21 21 21 20 20 20 19 19 19 19 19 19 19 19 18 18 18 18 18 18 18
30 30 30 29 28 28 27 27 27 26 25 25 24 24 24 24 24 24 23 23 24 24 24 23 23 23 23 22 22 21 21 21 21 21 21 21 20 20 20 21 21 21 21
30 31 31 31 31 31 30 29 29 28 27 27 26 26 26 26 26 26 26 25 26 26 26 25 25 25 25 24 24 24 23 23 23 23 23 23 23 22 22 22 22 22 23
32 32 32 31 32 32 32 31 31 30 29 29 28 28 27 27 28 28 28 27 27 27 27 27 28 28 27 27 27 26 25 25 25 25 25 25 25 24 24 24 24 23 24
33 33 33 33 33 33 33 32 32 31 31 31 31 30 29 29 29 29 30 29 29 29 29 29 30 30 30 30 29 28 28 27 27 27 27 26 26 27 27 27 27 27 27
36 36 36 35 35 35 34 34 33 33 33 32 32 31 31 31 31 31 31 31 31 30 30 30 31 32 32 32 31 30 30 30 29 29 29 28 28 29 29 30 30 30 30
37 38 38 36 37 37 36 36 36 35 35 34 33 33 32 33 33 32 33 33 33 33 32 32 32 32 33 33 33 32 32 31 31 31 31 31 31 31 32 32 32 32 33
38 39 39 38 37 37 37 37 37 36 35 35 35 34 34 34 34 34 34 34 34 34 34 33 33 33 33 34 34 34 33 33 33 33 33 33 34 34 34 34 34 34 35
39 39 40 40 39 39 38 37 38 38 38 37 36 36 36 36 36 35 36 35 36 35 35 34 34 34 33 34 34 35 35 35 35 35 35 35 36 36 36 36 36 36 36
40 40 41 41 41 41 41 40 39 39 40 39 38 37 37 36 36 36 37 37 36 35 35 35 34 34 34 34 35 35 36 37 37 37 37 37 37 37 37 37 38 37 37
40 40 41 42 42 43 43 43 42 41 41 40 39 38 38 37 36 36 36 37 37 36 35 35 34 35 35 36 36 36 36 36 37 38 38 38 38 38 38 38 37 37 37
39 39 41 41 41 42 43 43 43 43 42 42 41 40 40 38 37 36 36 36 37 36 36 36 36 35 36 36 37 38 38 37 36 37 37 38 38 38 38 38 38 38 38
38 38 39 41 41 41 42 43 43 43 42 42 43 41 41 40 39 38 37 37 36 36 36 36 36 37 37 37 38 38 38 38 38 37 38 38 37 38 38 38 39 39 39
38 38 38 39 40 41 42 42 43 42 42 42 43 43 42 42 41 40 41 40 39 39 38 37 37 38 38 38 38 38 39 39 39 39 39 39 39 38 39 39 39 39 39
37 37 38 39 39 39 40 42 43 43 43 43 43 42 42 42 42 42 42 42 41 40 39 39 39 39 39 39 39 39 39 40 41 41 41 40 39 39 40 40 41 40 40
36 36 37 38 39 39 40 41 42 43 43 43 43 43 43 43 43 42 43 43 42 41 41 40 40 40 41 41 42 41 41 41 41 42 42 42 42 42 42 43 43 43 43
Wind_Direction
235 232 231 229 225 220 216 214 215 216 216 213 210 209 211 207 195 186 180 176 180 188 195 197 209 213 212 223 243 252 256 261 263 267 270 281 288 301 317 331 341 342 337
236 233 232 231 228 225 221 219 219 220 219 220 217 215 216 215 211 205 202 200 206 216 222 227 236 237 238 238 247 255 259 260 264 264 267 276 277 281 288 300 309 315 317
236 233 232 231 230 227 224 223 223 222 222 224 223 222 222 222 221 221 221 219 223 227 229 234 244 249 250 253 259 263 262 260 262 264 268 272 275 277 283 290 295 298 300
236 235 233 232 232 231 228 227 227 226 226 227 228 227 228 230 230 230 230 233 236 235 235 240 247 254 256 259 261 260 258 259 262 265 268 272 275 276 279 284 288 289 290
236 235 234 233 233 233 231 230 230 232 231 230 230 231 232 235 237 236 237 242 243 243 243 247 253 256 258 260 260 259 256 257 261 264 266 269 272 274 275 280 282 286 285
235 234 234 234 234 234 233 233 233 234 234 232 233 234 236 238 239 241 243 244 246 247 248 252 256 259 261 262 262 259 258 257 259 261 262 265 268 271 273 275 278 280 283
237 235 234 235 235 235 234 235 236 237 235 234 235 237 240 242 242 244 246 246 247 248 251 254 257 257 259 260 259 257 258 259 259 259 259 262 264 268 271 273 275 275 277
238 236 234 236 236 237 237 238 238 238 237 237 238 240 243 245 246 247 249 250 249 251 254 257 258 257 256 257 257 257 258 258 259 260 259 260 262 265 269 272 273 274 276
237 237 235 236 238 239 239 240 238 238 239 240 242 243 245 247 250 251 251 252 253 253 256 258 259 258 256 256 257 257 258 258 258 259 260 261 262 264 267 270 271 274 276
238 238 238 238 239 241 241 241 239 239 241 242 244 245 247 249 251 253 255 256 256 257 258 260 259 258 257 256 257 258 258 257 257 258 260 261 263 264 266 268 271 273 276
239 240 240 240 240 242 243 243 241 242 244 245 246 247 249 251 253 256 257 258 259 259 259 260 259 258 257 257 257 258 258 257 257 258 259 261 262 264 266 268 270 273 275
239 239 239 240 241 242 244 244 243 244 246 248 249 249 251 254 256 257 259 260 261 261 259 258 258 258 257 257 258 259 259 258 258 259 260 261 263 265 267 268 270 272 274
239 240 240 240 241 243 244 245 246 246 248 250 252 252 254 256 257 258 259 261 262 261 259 258 258 257 256 257 258 259 260 260 260 261 261 262 264 266 268 269 270 271 273
241 241 242 242 243 244 245 245 246 247 250 251 253 254 255 257 258 259 260 261 262 261 259 259 258 256 256 257 257 259 260 261 262 262 263 264 264 266 268 269 270 273 273
241 241 242 243 243 244 245 245 246 248 250 251 252 254 255 257 259 261 262 262 261 261 260 259 258 256 256 257 258 260 261 261 263 263 265 266 266 266 266 268 269 272 273
242 241 242 244 243 244 244 245 246 247 249 250 252 254 256 258 260 262 263 263 262 261 261 260 258 257 258 258 260 262 263 263 264 264 265 265 266 267 267 268 269 270 273
244 243 243 245 244 244 244 245 247 247 248 249 252 255 257 259 261 261 262 262 262 262 261 260 259 258 259 260 261 262 263 264 264 264 265 266 267 267 268 269 270 271 271
246 245 245 247 247 247 246 245 247 248 248 250 252 254 257 260 262 262 260 260 261 261 261 260 259 259 260 261 262 263 264 265 265 265 265 266 267 268 269 269 270 272 271
247 247 246 247 247 248 248 249 248 249 250 252 253 254 257 260 262 263 260 261 260 260 260 260 260 260 261 260 261 263 264 265 265 265 266 267 268 268 269 269 270 272 272
248 248 248 247 247 248 249 250 250 250 250 252 254 255 256 259 262 261 260 261 260 259 259 260 260 259 261 261 262 264 264 264 264 265 266 268 269 269 269 270 269 271 272
250 250 249 249 249 250 251 252 252 251 251 251 253 256 257 258 260 262 262 262 260 259 258 259 259 260 261 262 263 264 265 266 266 267 266 267 268 268 269 270 270 271 271
250 251 250 250 251 251 252 252 253 253 253 253 253 256 257 258 259 261 261 261 261 260 259 259 260 261 263 264 265 265 266 266 267 267 266 267 268 268 269 269 270 271 272
250 250 250 249 250 252 252 252 253 254 255 255 255 256 257 257 257 259 260 261 261 260 261 262 263 263 263 264 266 267 267 266 266 265 265 266 267 268 269 269 270 271 272
249 250 250 249 250 251 252 252 253 254 255 256 257 256 256 256 256 258 258 259 261 260 260 262 263 263 264 264 264 266 267 267 266 266 266 267 268 269 270 270 271 272 272
249 250 250 250 251 252 252 253 253 254 255 256 257 257 257 257 257 256 257 259 261 261 261 261 262 263 264 264 265 266 266 267 267 267 268 268 269 270 270 270 270 271 272
251 251 250 251 252 253 253 254 255 256 255 256 257 257 259 259 258 258 258 258 259 261 261 260 261 263 264 264 265 266 266 267 268 269 269 269 270 271 271 271 272 272 273
Height
5854 5855 5855 5856 5856 5857 5857 5858 5859 5859 5860 5860 5860 5860 5860 5860 5861 5861 5861 5861 5861 5861 5861 5861 5861 5861 5861 5861 5860 5860 5860 5860 5859 5859 5859 5859 5858 5858 5857 5857 5856 5856 5855
5852 5852 5853 5854 5855 5855 5856 5856 5857 5858 5858 5859 5859 5859 5860 5860 5860 5860 5860 5860 5860 5860 5860 5860 5860 5860 5860 5860 5860 5859 5859 5859 5859 5859 5858 5858 5858 5857 5857 5856 5856 5855 5855
5849 5850 5851 5852 5853 5853 5854 5855 5855 5856 5857 5857 5857 5858 5858 5858 5859 5859 5859 5859 5859 5859 5859 5859 5859 5859 5859 5859 5859 5858 5858 5858 5858 5858 5857 5857 5857 5856 5856 5855 5855 5854 5854
5846 5847 5848 5849 5850 5851 5852 5853 5854 5854 5855 5855 5856 5856 5857 5857 5857 5857 5858 5858 5858 5858 5858 5858 5858 5857 5857 5857 5857 5857 5857 5857 5857 5856 5856 5856 5855 5855 5855 5854 5854 5853 5853
5843 5844 5845 5847 5848 5849 5849 5850 5851 5852 5853 5853 5854 5854 5855 5855 5855 5856 5856 5856 5856 5856 5856 5856 5856 5856 5856 5856 5855 5855 5855 5855 5855 5855 5854 5854 5854 5854 5853 5853 5853 5852 5852
5839 5841 5842 5843 5845 5846 5846 5847 5848 5849 5850 5851 5852 5852 5853 5853 5853 5853 5854 5854 5854 5854 5854 5854 5854 5854 5853 5853 5853 5853 5853 5853 5853 5853 5853 5852 5852 5852 5852 5851 5851 5851 5850
5835 5837 5839 5840 5841 5842 5843 5844 5845 5846 5847 5848 5849 5850 5850 5850 5851 5851 5851 5851 5851 5852 5852 5851 5851 5851 5851 5851 5851 5851 5851 5851 5850 5850 5850 5850 5850 5850 5850 5849 5849 5849 5848
5831 5833 5835 5836 5837 5839 5840 5841 5842 5843 5844 5845 5846 5846 5847 5847 5848 5848 5848 5848 5848 5849 5849 5848 5848 5848 5848 5848 5848 5848 5848 5848 5847 5847 5847 5847 5847 5847 5847 5847 5847 5846 5846
5826 5828 5830 5831 5833 5835 5836 5837 5838 5839 5840 5841 5842 5843 5844 5844 5844 5845 5845 5845 5845 5845 5845 5845 5845 5845 5844 5844 5844 5844 5844 5844 5844 5844 5844 5844 5844 5844 5844 5844 5844 5843 5843
5821 5823 5825 5827 5829 5830 5832 5833 5834 5835 5836 5837 5838 5839 5840 5840 5840 5841 5841 5841 5841 5841 5841 5841 5840 5840 5840 5840 5840 5840 5840 5840 5840 5840 5841 5841 5841 5841 5841 5840 5840 5840 5840
5815 5818 5820 5822 5824 5825 5827 5828 5830 5831 5832 5833 5834 5835 5835 5836 5836 5836 5836 5836 5836 5836 5836 5836 5836 5836 5836 5836 5836 5836 5836 5836 5836 5836 5836 5837 5837 5837 5837 5837 5837 5836 5836
5809 5812 5814 5817 5819 5820 5822 5823 5824 5826 5827 5828 5829 5830 5830 5831 5831 5831 5831 5831 5831 5831 5830 5830 5830 5830 5830 5831 5831 5831 5831 5831 5831 5831 5832 5832 5833 5833 5833 5832 5832 5832 5831
5803 5806 5808 5810 5812 5814 5816 5817 5819 5820 5822 5823 5824 5825 5825 5825 5826 5826 5826 5826 5825 5825 5824 5824 5824 5824 5825 5825 5825 5826 5826 5826 5826 5826 5827 5827 5828 5828 5827 5827 5827 5827 5826
5797 5799 5801 5804 5806 5808 5809 5811 5813 5814 5816 5817 5818 5819 5819 5820 5820 5820 5820 5819 5819 5818 5818 5818 5818 5818 5818 5819 5819 5820 5820 5820 5821 5821 5821 5822 5822 5822 5822 5822 5822 5821 5821
5790 5792 5795 5797 5799 5801 5802 5804 5806 5808 5809 5810 5811 5812 5813 5813 5813 5813 5813 5812 5812 5811 5811 5811 5811 5811 5812 5813 5813 5813 5814 5814 5814 5815 5815 5816 5816 5816 5816 5816 5816 5815 5815
5783 5785 5787 5789 5791 5793 5795 5797 5799 5800 5802 5803 5804 5805 5806 5806 5806 5806 5805 5805 5804 5804 5803 5803 5803 5804 5805 5806 5806 5807 5807 5808 5808 5808 5809 5809 5809 5809 5809 5809 5809 5808 5808
5775 5777 5780 5782 5784 5786 5787 5789 5791 5792 5794 5795 5796 5798 5798 5798 5798 5798 5797 5797 5796 5796 5795 5795 5795 5796 5797 5799 5799 5800 5800 5801 5801 5801 5801 5802 5802 5802 5802 5801 5801 5801 5800
5767 5769 5772 5774 5776 5778 5780 5781 5783 5784 5786 5787 5788 5789 5790 5790 5790 5789 5789 5788 5788 5788 5787 5787 5788 5789 5790 5791 5792 5793 5793 5793 5793 5793 5794 5794 5794 5794 5794 5793 5793 5793 5792
5759 5761 5763 5765 5768 5770 5771 5773 5774 5776 5778 5779 5780 5781 5782 5782 5782 5781 5780 5780 5780 5780 5779 5780 5780 5781 5783 5783 5784 5785 5785 5785 5785 5785 5785 5785 5785 5785 5785 5785 5785 5784 5783
5750 5752 5754 5757 5759 5761 5763 5764 5766 5767 5769 5770 5771 5772 5773 5773 5773 5773 5772 5772 5772 5772 5772 5772 5773 5774 5775 5776 5776 5777 5777 5777 5776 5777 5777 5776 5776 5776 5776 5776 5775 5775 5775
5741 5743 5745 5747 5750 5752 5754 5755 5757 5758 5760 5762 5763 5764 5764 5764 5764 5764 5764 5764 5764 5764 5764 5765 5766 5767 5768 5768 5768 5768 5768 5768 5768 5768 5768 5767 5767 5767 5766 5766 5766 5766 5766
5731 5733 5736 5738 5740 5742 5744 5746 5747 5749 5751 5752 5753 5754 5755 5756 5756 5756 5755 5756 5756 5756 5757 5758 5758 5759 5759 5759 5759 5759 5760 5760 5759 5759 5758 5758 5758 5758 5758 5757 5757 5757 5756
5722 5724 5726 5728 5730 5732 5734 5736 5738 5739 5741 5742 5744 5745 5746 5747 5747 5748 5748 5748 5748 5749 5749 5750 5750 5750 5750 5750 5750 5750 5750 5751 5751 5751 5750 5749 5749 5749 5749 5748 5748 5747 5747
5713 5715 5717 5719 5721 5723 5724 5726 5728 5730 5732 5734 5734 5735 5737 5737 5738 5738 5739 5740 5740 5740 5741 5741 5741 5741 5741 5742 5741 5741 5741 5741 5741 5742 5741 5740 5740 5739 5739 5739 5738 5738 5738
5704 5706 5708 5709 5711 5713 5715 5716 5718 5720 5722 5723 5724 5726 5727 5727 5728 5729 5730 5730 5731 5731 5732 5732 5732 5732 5732 5732 5732 5731 5731 5731 5731 5731 5731 5731 5730 5730 5730 5729 5729 5729 5728
5695 5696 5698 5700 5702 5704 5705 5707 5708 5710 5711 5713 5714 5716 5717 5717 5718 5718 5719 5720 5720 5721 5722 5722 5722 5722 5721 5721 5722 5721 5721 5721 5721 5721 5721 5721 5721 5720 5720 5719 5719 5718 5717